Time,TemperatureF,DewpointF,PressureIn,WindDirection,WindDirectionDegrees,WindSpeedMPH,WindSpeedGustMPH,Humidity,HourlyPrecipIn,Conditions,Clouds,dailyrainin,SoftwareType,DateUTC
2013-03-04 00:01:00,63.0,10.0,30.00,North,-999,-999.0,-999.0,12,-99.99,,,-99.99,,2013-03-04 07:01:00,
2013-03-04 00:11:00,63.0,10.0,30.00,North,-999,-999.0,-999.0,12,-99.99,,,-99.99,,2013-03-04 07:11:00,
2013-03-04 00:21:00,63.0,10.0,30.00,North,-999,-999.0,-999.0,12,-99.99,,,-99.99,,2013-03-04 07:21:00,
2013-03-04 00:32:00,63.0,10.0,29.98,North,-999,-999.0,-999.0,12,-99.99,,,-99.99,,2013-03-04 07:32:00,
2013-03-04 00:41:00,63.0,10.0,29.98,North,-999,-999.0,-999.0,12,-99.99,,,-99.99,,2013-03-04 07:41:00,
2013-03-04 00:52:00,62.0,10.0,29.98,North,-999,-999.0,-999.0,12,-99.99,,,-99.99,,2013-03-04 07:52:00,
2013-03-04 01:02:00,62.0,10.0,29.99,North,-999,-999.0,-999.0,13,-99.99,,,-99.99,,2013-03-04 08:02:00,
2013-03-04 01:11:00,62.0,10.0,29.99,North,-999,-999.0,-999.0,13,-99.99,,,-99.99,,2013-03-04 08:11:00,
2013-03-04 01:22:00,61.0,10.0,29.99,North,-999,-999.0,-999.0,13,-99.99,,,-99.99,,2013-03-04 08:22:00,
2013-03-04 01:32:00,61.0,10.0,29.99,North,-999,-999.0,-999.0,13,-99.99,,,-99.99,,2013-03-04 08:32:00,
2013-03-04 01:42:00,61.0,10.0,29.99,North,-999,-999.0,-999.0,13,-99.99,,,-99.99,,2013-03-04 08:42:00,
2013-03-04 01:52:00,58.0,9.0,29.99,North,-999,-999.0,-999.0,14,-99.99,,,-99.99,,2013-03-04 08:52:00,
2013-03-04 02:01:00,59.0,10.0,29.99,North,-999,-999.0,-999.0,14,-99.99,,,-99.99,,2013-03-04 09:01:00,
2013-03-04 02:11:00,59.0,10.0,29.99,North,-999,-999.0,-999.0,14,-99.99,,,-99.99,,2013-03-04 09:11:00,
2013-03-04 02:21:00,59.0,10.0,29.99,North,-999,-999.0,-999.0,14,-99.99,,,-99.99,,2013-03-04 09:21:00,
2013-03-04 02:32:00,58.0,9.0,29.98,North,-999,-999.0,-999.0,14,-99.99,,,-99.99,,2013-03-04 09:32:00,
2013-03-04 02:42:00,58.0,9.0,29.98,North,-999,-999.0,-999.0,14,-99.99,,,-99.99,,2013-03-04 09:42:00,
2013-03-04 02:52:00,58.0,10.0,29.97,North,-999,-999.0,-999.0,14,-99.99,,,-99.99,,2013-03-04 09:52:00,
2013-03-04 03:01:00,58.0,10.0,29.96,North,-999,-999.0,-999.0,14,-99.99,,,-99.99,,2013-03-04 10:01:00,
2013-03-04 03:11:00,58.0,10.0,29.96,North,-999,-999.0,-999.0,14,-99.99,,,-99.99,,2013-03-04 10:11:00,
2013-03-04 03:22:00,57.0,10.0,29.96,North,-999,-999.0,-999.0,15,-99.99,,,-99.99,,2013-03-04 10:22:00,
2013-03-04 03:32:00,57.0,10.0,29.96,North,-999,-999.0,-999.0,15,-99.99,,,-99.99,,2013-03-04 10:32:00,
2013-03-04 03:42:00,57.0,10.0,29.96,North,-999,-999.0,-999.0,15,-99.99,,,-99.99,,2013-03-04 10:42:00,
2013-03-04 03:52:00,56.0,10.0,29.96,North,-999,-999.0,-999.0,15,-99.99,,,-99.99,,2013-03-04 10:52:00,
2013-03-04 04:01:00,56.0,10.0,29.96,North,-999,-999.0,-999.0,15,-99.99,,,-99.99,,2013-03-04 11:01:00,
2013-03-04 04:11:00,56.0,10.0,29.96,North,-999,-999.0,-999.0,15,-99.99,,,-99.99,,2013-03-04 11:11:00,
2013-03-04 04:22:00,55.0,11.0,29.96,North,-999,-999.0,-999.0,17,-99.99,,,-99.99,,2013-03-04 11:22:00,
2013-03-04 04:32:00,54.0,12.0,29.96,North,-999,-999.0,-999.0,18,-99.99,,,-99.99,,2013-03-04 11:32:00,
2013-03-04 04:42:00,54.0,12.0,29.96,North,-999,-999.0,-999.0,18,-99.99,,,-99.99,,2013-03-04 11:42:00,
2013-03-04 04:52:00,56.0,11.0,29.96,North,-999,-999.0,-999.0,16,-99.99,,,-99.99,,2013-03-04 11:52:00,
2013-03-04 05:01:00,55.0,11.0,29.96,North,-999,-999.0,-999.0,17,-99.99,,,-99.99,,2013-03-04 12:01:00,
2013-03-04 05:11:00,55.0,11.0,29.96,North,-999,-999.0,-999.0,17,-99.99,,,-99.99,,2013-03-04 12:11:00,
2013-03-04 05:22:00,54.0,12.0,29.97,North,-999,-999.0,-999.0,18,-99.99,,,-99.99,,2013-03-04 12:22:00,
2013-03-04 05:32:00,54.0,12.0,29.97,North,-999,-999.0,-999.0,18,-99.99,,,-99.99,,2013-03-04 12:32:00,
2013-03-04 05:42:00,54.0,12.0,29.97,North,-999,-999.0,-999.0,18,-99.99,,,-99.99,,2013-03-04 12:42:00,
2013-03-04 05:53:00,56.0,10.0,29.98,North,-999,-999.0,-999.0,16,-99.99,,,-99.99,,2013-03-04 12:53:00,
2013-03-04 06:02:00,56.0,10.0,29.98,North,-999,-999.0,-999.0,16,-99.99,,,-99.99,,2013-03-04 13:02:00,
2013-03-04 06:11:00,56.0,10.0,29.98,North,-999,-999.0,-999.0,16,-99.99,,,-99.99,,2013-03-04 13:11:00,
2013-03-04 06:21:00,56.0,10.0,29.98,North,-999,-999.0,-999.0,15,-99.99,,,-99.99,,2013-03-04 13:21:00,
2013-03-04 06:32:00,57.0,10.0,29.98,North,-999,-999.0,-999.0,15,-99.99,,,-99.99,,2013-03-04 13:32:00,
2013-03-04 06:42:00,57.0,10.0,29.98,North,-999,-999.0,-999.0,15,-99.99,,,-99.99,,2013-03-04 13:42:00,
2013-03-04 06:52:00,58.0,10.0,29.98,North,-999,-999.0,-999.0,14,-99.99,,,-99.99,,2013-03-04 13:52:00,
2013-03-04 07:01:00,58.0,10.0,29.99,North,-999,-999.0,-999.0,14,-99.99,,,-99.99,,2013-03-04 14:01:00,
2013-03-04 07:11:00,58.0,10.0,29.99,North,-999,-999.0,-999.0,14,-99.99,,,-99.99,,2013-03-04 14:11:00,
2013-03-04 07:22:00,59.0,9.0,29.99,North,-999,-999.0,-999.0,13,-99.99,,,-99.99,,2013-03-04 14:22:00,
2013-03-04 07:32:00,59.0,9.0,29.99,North,-999,-999.0,-999.0,13,-99.99,,,-99.99,,2013-03-04 14:32:00,
2013-03-04 07:42:00,59.0,9.0,29.99,North,-999,-999.0,-999.0,13,-99.99,,,-99.99,,2013-03-04 14:42:00,
2013-03-04 07:52:00,60.0,7.0,30.00,North,-999,-999.0,-999.0,12,-99.99,,,-99.99,,2013-03-04 14:52:00,
2013-03-04 08:01:00,63.0,6.0,30.00,North,-999,-999.0,-999.0,10,-99.99,,,-99.99,,2013-03-04 15:01:00,
2013-03-04 08:11:00,63.0,6.0,30.00,North,-999,-999.0,-999.0,10,-99.99,,,-99.99,,2013-03-04 15:11:00,
2013-03-04 08:22:00,64.0,5.0,30.00,North,-999,-999.0,-999.0,9,-99.99,,,-99.99,,2013-03-04 15:22:00,
2013-03-04 08:32:00,65.0,7.0,30.00,North,-999,-999.0,-999.0,10,-99.99,,,-99.99,,2013-03-04 15:32:00,
2013-03-04 08:42:00,65.0,7.0,30.00,North,-999,-999.0,-999.0,10,-99.99,,,-99.99,,2013-03-04 15:42:00,
2013-03-04 08:52:00,65.0,9.0,29.99,North,-999,-999.0,-999.0,11,-99.99,,,-99.99,,2013-03-04 15:52:00,
2013-03-04 09:02:00,65.0,11.0,29.99,North,-999,-999.0,-999.0,11,-99.99,,,-99.99,,2013-03-04 16:02:00,
2013-03-04 09:11:00,65.0,11.0,29.99,North,-999,-999.0,-999.0,11,-99.99,,,-99.99,,2013-03-04 16:11:00,
2013-03-04 09:21:00,66.0,12.0,29.99,North,-999,-999.0,-999.0,12,-99.99,,,-99.99,,2013-03-04 16:21:00,
2013-03-04 09:32:00,66.0,12.0,29.99,North,-999,-999.0,-999.0,12,-99.99,,,-99.99,,2013-03-04 16:32:00,
2013-03-04 09:42:00,67.0,11.0,29.99,North,-999,-999.0,-999.0,11,-99.99,,,-99.99,,2013-03-04 16:42:00,
2013-03-04 09:52:00,67.0,12.0,29.99,North,-999,-999.0,-999.0,11,-99.99,,,-99.99,,2013-03-04 16:52:00,
2013-03-04 10:02:00,68.0,12.0,29.98,North,-999,-999.0,-999.0,11,-99.99,,,-99.99,,2013-03-04 17:02:00,
2013-03-04 10:11:00,68.0,12.0,29.98,North,-999,-999.0,-999.0,11,-99.99,,,-99.99,,2013-03-04 17:11:00,
2013-03-04 10:22:00,70.0,11.0,29.98,North,-999,-999.0,-999.0,10,-99.99,,,-99.99,,2013-03-04 17:22:00,
2013-03-04 10:32:00,71.0,11.0,29.98,North,-999,-999.0,-999.0,9,-99.99,,,-99.99,,2013-03-04 17:32:00,
2013-03-04 10:42:00,71.0,11.0,29.98,North,-999,-999.0,-999.0,9,-99.99,,,-99.99,,2013-03-04 17:42:00,
2013-03-04 10:52:00,72.0,9.0,29.96,North,-999,-999.0,-999.0,8,-99.99,,,-99.99,,2013-03-04 17:52:00,
2013-03-04 11:01:00,72.0,7.0,29.95,North,-999,-999.0,-999.0,8,-99.99,,,-99.99,,2013-03-04 18:01:00,
2013-03-04 11:11:00,72.0,7.0,29.95,North,-999,-999.0,-999.0,8,-99.99,,,-99.99,,2013-03-04 18:11:00,
2013-03-04 11:22:00,72.0,2.0,29.95,North,-999,-999.0,-999.0,6,-99.99,,,-99.99,,2013-03-04 18:22:00,
2013-03-04 11:32:00,73.0,4.0,29.94,North,-999,-999.0,-999.0,6,-99.99,,,-99.99,,2013-03-04 18:32:00,
2013-03-04 11:42:00,73.0,4.0,29.94,North,-999,-999.0,-999.0,6,-99.99,,,-99.99,,2013-03-04 18:42:00,
2013-03-04 11:52:00,74.0,3.0,29.92,North,-999,-999.0,-999.0,6,-99.99,,,-99.99,,2013-03-04 18:52:00,
2013-03-04 12:02:00,74.0,8.0,29.91,North,-999,-999.0,-999.0,7,-99.99,,,-99.99,,2013-03-04 19:02:00,
2013-03-04 12:11:00,74.0,8.0,29.91,North,-999,-999.0,-999.0,7,-99.99,,,-99.99,,2013-03-04 19:11:00,
2013-03-04 12:22:00,75.0,10.0,29.90,North,-999,-999.0,-999.0,8,-99.99,,,-99.99,,2013-03-04 19:22:00,
2013-03-04 12:32:00,77.0,10.0,29.87,North,-999,-999.0,-999.0,7,-99.99,,,-99.99,,2013-03-04 19:32:00,
2013-03-04 12:42:00,77.0,10.0,29.87,North,-999,-999.0,-999.0,7,-99.99,,,-99.99,,2013-03-04 19:42:00,
2013-03-04 12:52:00,77.0,14.0,29.88,North,-999,-999.0,-999.0,9,-99.99,,,-99.99,,2013-03-04 19:52:00,
2013-03-04 13:02:00,78.0,17.0,29.85,North,-999,-999.0,-999.0,10,-99.99,,,-99.99,,2013-03-04 20:02:00,
2013-03-04 13:11:00,78.0,17.0,29.85,North,-999,-999.0,-999.0,10,-99.99,,,-99.99,,2013-03-04 20:11:00,
2013-03-04 13:22:00,78.0,24.0,29.84,North,-999,-999.0,-999.0,13,-99.99,,,-99.99,,2013-03-04 20:22:00,
2013-03-04 13:32:00,78.0,28.0,29.81,North,-999,-999.0,-999.0,15,-99.99,,,-99.99,,2013-03-04 20:32:00,
2013-03-04 13:42:00,78.0,28.0,29.81,North,-999,-999.0,-999.0,15,-99.99,,,-99.99,,2013-03-04 20:42:00,
2013-03-04 13:52:00,77.0,27.0,29.84,North,-999,-999.0,-999.0,16,-99.99,,,-99.99,,2013-03-04 20:52:00,
2013-03-04 14:02:00,77.0,25.0,29.83,North,-999,-999.0,-999.0,14,-99.99,,,-99.99,,2013-03-04 21:02:00,
2013-03-04 14:11:00,77.0,25.0,29.83,North,-999,-999.0,-999.0,14,-99.99,,,-99.99,,2013-03-04 21:11:00,
2013-03-04 14:22:00,76.0,25.0,29.82,North,-999,-999.0,-999.0,14,-99.99,,,-99.99,,2013-03-04 21:22:00,
2013-03-04 14:32:00,77.0,24.0,29.81,North,-999,-999.0,-999.0,13,-99.99,,,-99.99,,2013-03-04 21:32:00,
2013-03-04 14:42:00,77.0,24.0,29.81,North,-999,-999.0,-999.0,13,-99.99,,,-99.99,,2013-03-04 21:42:00,
2013-03-04 14:53:00,77.0,22.0,29.81,North,-999,-999.0,-999.0,12,-99.99,,,-99.99,,2013-03-04 21:53:00,
2013-03-04 15:01:00,77.0,21.0,29.82,North,-999,-999.0,-999.0,12,-99.99,,,-99.99,,2013-03-04 22:01:00,
2013-03-04 15:12:00,77.0,21.0,29.82,North,-999,-999.0,-999.0,12,-99.99,,,-99.99,,2013-03-04 22:12:00,
2013-03-04 15:22:00,77.0,21.0,29.80,North,-999,-999.0,-999.0,12,-99.99,,,-99.99,,2013-03-04 22:22:00,
2013-03-04 15:32:00,77.0,21.0,29.80,North,-999,-999.0,-999.0,12,-99.99,,,-99.99,,2013-03-04 22:32:00,
2013-03-04 15:42:00,77.0,21.0,29.82,North,-999,-999.0,-999.0,12,-99.99,,,-99.99,,2013-03-04 22:42:00,
2013-03-04 15:52:00,76.0,21.0,29.82,North,-999,-999.0,-999.0,12,-99.99,,,-99.99,,2013-03-04 22:52:00,
2013-03-04 16:01:00,76.0,22.0,29.83,North,-999,-999.0,-999.0,12,-99.99,,,-99.99,,2013-03-04 23:01:00,
2013-03-04 16:11:00,76.0,22.0,29.83,North,-999,-999.0,-999.0,12,-99.99,,,-99.99,,2013-03-04 23:11:00,
2013-03-04 16:22:00,76.0,22.0,29.82,North,-999,-999.0,-999.0,13,-99.99,,,-99.99,,2013-03-04 23:22:00,
2013-03-04 16:32:00,75.0,22.0,29.83,North,-999,-999.0,-999.0,13,-99.99,,,-99.99,,2013-03-04 23:32:00,
2013-03-04 16:42:00,75.0,22.0,29.83,North,-999,-999.0,-999.0,13,-99.99,,,-99.99,,2013-03-04 23:42:00,
2013-03-04 16:52:00,75.0,23.0,29.83,North,-999,-999.0,-999.0,14,-99.99,,,-99.99,,2013-03-04 23:52:00,
2013-03-04 17:02:00,75.0,22.0,29.84,North,-999,-999.0,-999.0,14,-99.99,,,-99.99,,2013-03-05 00:02:00,
2013-03-04 17:11:00,75.0,22.0,29.84,North,-999,-999.0,-999.0,14,-99.99,,,-99.99,,2013-03-05 00:11:00,
2013-03-04 17:21:00,74.0,21.0,29.86,North,-999,-999.0,-999.0,13,-99.99,,,-99.99,,2013-03-05 00:21:00,
2013-03-04 17:32:00,73.0,20.0,29.88,North,-999,-999.0,-999.0,13,-99.99,,,-99.99,,2013-03-05 00:32:00,
2013-03-04 17:42:00,73.0,20.0,29.88,North,-999,-999.0,-999.0,13,-99.99,,,-99.99,,2013-03-05 00:42:00,
2013-03-04 17:52:00,72.0,20.0,29.88,North,-999,-999.0,-999.0,13,-99.99,,,-99.99,,2013-03-05 00:52:00,
2013-03-04 18:01:00,71.0,18.0,29.89,North,-999,-999.0,-999.0,13,-99.99,,,-99.99,,2013-03-05 01:01:00,
2013-03-04 18:12:00,71.0,18.0,29.89,North,-999,-999.0,-999.0,13,-99.99,,,-99.99,,2013-03-05 01:12:00,
2013-03-04 18:22:00,70.0,17.0,29.91,North,-999,-999.0,-999.0,13,-99.99,,,-99.99,,2013-03-05 01:22:00,
2013-03-04 18:32:00,69.0,17.0,29.91,North,-999,-999.0,-999.0,13,-99.99,,,-99.99,,2013-03-05 01:32:00,
2013-03-04 18:41:00,69.0,17.0,29.91,North,-999,-999.0,-999.0,13,-99.99,,,-99.99,,2013-03-05 01:41:00,
2013-03-04 18:52:00,69.0,17.0,29.92,North,-999,-999.0,-999.0,13,-99.99,,,-99.99,,2013-03-05 01:52:00,
2013-03-04 19:01:00,68.0,18.0,29.94,North,-999,-999.0,-999.0,14,-99.99,,,-99.99,,2013-03-05 02:01:00,
2013-03-04 19:11:00,68.0,18.0,29.94,North,-999,-999.0,-999.0,14,-99.99,,,-99.99,,2013-03-05 02:11:00,
2013-03-04 19:22:00,67.0,18.0,29.95,North,-999,-999.0,-999.0,15,-99.99,,,-99.99,,2013-03-05 02:22:00,
2013-03-04 19:32:00,66.0,18.0,29.97,North,-999,-999.0,-999.0,15,-99.99,,,-99.99,,2013-03-05 02:32:00,
2013-03-04 19:42:00,66.0,18.0,29.97,North,-999,-999.0,-999.0,15,-99.99,,,-99.99,,2013-03-05 02:42:00,
2013-03-04 19:52:00,65.0,18.0,29.98,North,-999,-999.0,-999.0,15,-99.99,,,-99.99,,2013-03-05 02:52:00,
2013-03-04 20:02:00,65.0,18.0,29.99,North,-999,-999.0,-999.0,16,-99.99,,,-99.99,,2013-03-05 03:02:00,
2013-03-04 20:12:00,65.0,18.0,29.99,North,-999,-999.0,-999.0,16,-99.99,,,-99.99,,2013-03-05 03:12:00,
2013-03-04 20:22:00,64.0,17.0,30.00,North,-999,-999.0,-999.0,16,-99.99,,,-99.99,,2013-03-05 03:22:00,
2013-03-04 20:32:00,64.0,19.0,30.02,North,-999,-999.0,-999.0,17,-99.99,,,-99.99,,2013-03-05 03:32:00,
2013-03-04 20:42:00,64.0,19.0,30.02,North,-999,-999.0,-999.0,17,-99.99,,,-99.99,,2013-03-05 03:42:00,
2013-03-04 20:52:00,63.0,20.0,30.03,North,-999,-999.0,-999.0,19,-99.99,,,-99.99,,2013-03-05 03:52:00,
2013-03-04 21:01:00,63.0,20.0,30.04,North,-999,-999.0,-999.0,19,-99.99,,,-99.99,,2013-03-05 04:01:00,
2013-03-04 21:11:00,63.0,20.0,30.04,North,-999,-999.0,-999.0,19,-99.99,,,-99.99,,2013-03-05 04:11:00,
2013-03-04 21:22:00,62.0,20.0,30.05,North,-999,-999.0,-999.0,20,-99.99,,,-99.99,,2013-03-05 04:22:00,
2013-03-04 21:32:00,61.0,20.0,30.05,North,-999,-999.0,-999.0,20,-99.99,,,-99.99,,2013-03-05 04:32:00,
2013-03-04 21:42:00,61.0,20.0,30.05,North,-999,-999.0,-999.0,20,-99.99,,,-99.99,,2013-03-05 04:42:00,
2013-03-04 21:52:00,61.0,20.0,30.06,North,-999,-999.0,-999.0,20,-99.99,,,-99.99,,2013-03-05 04:52:00,
2013-03-04 22:02:00,60.0,21.0,30.06,North,-999,-999.0,-999.0,21,-99.99,,,-99.99,,2013-03-05 05:02:00,
2013-03-04 22:12:00,60.0,21.0,30.06,North,-999,-999.0,-999.0,21,-99.99,,,-99.99,,2013-03-05 05:12:00,
2013-03-04 22:22:00,60.0,21.0,30.07,North,-999,-999.0,-999.0,22,-99.99,,,-99.99,,2013-03-05 05:22:00,
2013-03-04 22:32:00,59.0,21.0,30.08,North,-999,-999.0,-999.0,23,-99.99,,,-99.99,,2013-03-05 05:32:00,
2013-03-04 22:42:00,59.0,21.0,30.08,North,-999,-999.0,-999.0,23,-99.99,,,-99.99,,2013-03-05 05:42:00,
2013-03-04 22:52:00,58.0,20.0,30.09,North,-999,-999.0,-999.0,23,-99.99,,,-99.99,,2013-03-05 05:52:00,
2013-03-04 23:01:00,58.0,20.0,30.10,North,-999,-999.0,-999.0,22,-99.99,,,-99.99,,2013-03-05 06:01:00,
2013-03-04 23:11:00,58.0,20.0,30.10,North,-999,-999.0,-999.0,22,-99.99,,,-99.99,,2013-03-05 06:11:00,
2013-03-04 23:22:00,58.0,20.0,30.10,North,-999,-999.0,-999.0,22,-99.99,,,-99.99,,2013-03-05 06:22:00,
2013-03-04 23:32:00,58.0,20.0,30.10,North,-999,-999.0,-999.0,22,-99.99,,,-99.99,,2013-03-05 06:32:00,
2013-03-04 23:42:00,58.0,20.0,30.10,North,-999,-999.0,-999.0,22,-99.99,,,-99.99,,2013-03-05 06:42:00,
2013-03-04 23:52:00,59.0,20.0,30.11,North,-999,-999.0,-999.0,21,-99.99,,,-99.99,,2013-03-05 06:52:00,